www.pogodaiklimat.ru

Погода и климат >> Архив погоды >> Франц. Южн. Территории >> Martin De Vivies Ile Amsterdam


ПОГОДА в Martin De Vivies Ile Amsterdam

  • Прогноз погоды в Martin De Vivies Ile Amsterdam
  • Монитор погоды в Martin De Vivies Ile Amsterdam
  • Климат города

АРХИВ ПОГОДЫ в Martin De Vivies Ile Amsterdam

Время (UTC), дата Ветер
(напр.,м/с)
 
Видим.   Явления Облачность Т
(С)
Тd
(С)
f
(%)
Тe
(С)
Тes
(С)
Комфортность P
(гПа)
Po
(гПа)
Тmin
(С)
Tmax
(С)
R
(мм)
R24
(мм)
S
(см)
02 11.10 0 н/о н/о +12.1 +8.8 80 1016.6 1013.1
01 11.10 0 н/о н/о +11.9 +9.6 86 1016.2 1012.7
03 11.10 0 н/о н/о +13.5 +9.2 75 1016.7 1013.2
04 11.10 0 н/о н/о +12.9 +9.5 80 1016.9 1013.4
05 11.10 0 н/о н/о +13.3 +9.7 79 1016.6 1013.1 0.2
06 11.10 0 н/о н/о +13.4 +10.9 85 1016.5 1013.0 +11.3 +14.3 0.2
08 11.10 0 н/о н/о +16.4 +10.9 70 1015.9 1012.5
07 11.10 0 н/о н/о +16.4 +12.2 76 1016.3 1012.9
09 11.10 0 н/о н/о +16.1 +11.5 74 1015.2 1011.7
10 11.10 0 н/о н/о +14.6 +10.8 78 1015.1 1011.6
11 11.10 0 н/о н/о +14.2 +10.6 79 1014.9 1011.4
12 11.10 0 н/о н/о +13.8 +10.6 81 1015.0 1011.5
14 11.10 0 н/о н/о +13.2 +10.7 85 1015.1 1011.6
13 11.10 0 н/о н/о +13.2 +10.6 84 1014.9 1011.4
15 11.10 0 н/о н/о +13.2 +10.7 85 1015.7 1012.2
16 11.10 0 н/о н/о +13.2 +10.9 86 1015.8 1012.3
17 11.10 0 н/о н/о +13.0 +11.1 88 1015.3 1011.8
18 11.10 0 н/о н/о +13.4 +11.3 87 1015.3 1011.8 +13.0 +16.7
20 11.10 0 н/о н/о +13.1 +12.0 93 1014.8 1011.3
19 11.10 0 н/о н/о +13.1 +11.8 92 1015.2 1011.7
21 11.10 0 н/о н/о +13.1 +12.2 94 1014.5 1011.0
22 11.10 0 н/о н/о +13.0 +11.9 93 1014.4 1010.9 0.2
23 11.10 0 н/о н/о +12.8 +11.7 93 1014.5 1011.0
00 12.10 0 н/о н/о +12.8 +12.0 95 1015.2 1011.7 0.4
02 12.10 0 н/о н/о +13.9 +12.3 90 1015.5 1012.0
01 12.10 0 н/о н/о +12.9 +12.1 95 1015.3 1011.8 0.4
03 12.10 0 н/о н/о +14.0 +12.0 88 1016.0 1012.5 0.4
04 12.10 0 н/о н/о +14.2 +12.1 87 1016.4 1012.9
05 12.10 0 н/о н/о +14.3 +12.3 88 1016.9 1013.4
06 12.10 0 н/о н/о +14.5 +12.5 88 1016.9 1013.4 +12.7 +14.6
08 12.10 0 н/о н/о +14.3 +12.5 89 1016.9 1013.4
07 12.10 0 н/о н/о +14.6 +12.5 87 1016.8 1013.3
09 12.10 0 н/о н/о +14.2 +12.8 91 1016.6 1013.1
10 12.10 0 н/о н/о +14.2 +12.8 91 1016.5 1013.0
11 12.10 0 н/о н/о +13.9 +12.8 93 1016.7 1013.2
12 12.10 0 н/о н/о +13.6 +12.8 95 1017.1 1013.6
14 12.10 0 н/о н/о +13.3 +12.7 96 1017.9 1014.4
13 12.10 0 н/о н/о +13.3 +12.5 95 1017.4 1013.9 0.2
15 12.10 0 н/о н/о +13.3 +12.7 96 1018.3 1014.8 0.2
16 12.10 0 н/о н/о +13.1 +12.5 96 1018.6 1015.1 0.2
17 12.10 0 н/о н/о +13.1 +12.5 96 1018.9 1015.4
18 12.10 0 н/о н/о +13.2 +12.6 96 1018.7 1015.2 +13.0 +14.9 0.2
20 12.10 0 н/о н/о +13.1 +12.6 97 1017.9 1014.4 0.2
19 12.10 0 н/о н/о +13.0 +12.5 97 1018.1 1014.6 0.6
21 12.10 0 н/о н/о +13.3 +12.8 97 1017.8 1014.3 0.8
22 12.10 З 7 н/о н/о +13.3 +12.8 97 +11 +11 1017.5 1014.0 0.2
23 12.10 З 9
{13}
н/о н/о +13.3 +12.8 97 +10 +10 1017.1 1013.6
00 13.10 З 9
{13}
н/о н/о +13.2 +12.7 97 +10 +10 1016.8 1013.3 0.2
02 13.10 З 9
{15}
н/о н/о +13.2 +12.6 96 +10 +10 1016.4 1012.9
01 13.10 З 11
{15}
н/о н/о +12.9 +12.4 97 +9 +9 1016.6 1013.1
03 13.10 З 12-17
{18}
н/о н/о +13.4 +12.5 94 +10 +10 1015.9 1012.4
04 13.10 З 12-20
{20}
н/о н/о +13.1 +11.8 92 +9 +9 1015.4 1011.9 0.2
05 13.10 З 12
{16}
н/о н/о +14.8 +12.5 86 +12 +12 1014.7 1011.2
06 13.10 З 13 н/о н/о +15.4 +13.4 88 +13 +13 1014.0 1010.5 +12.9 +15.4 0.2
08 13.10 З 12-18
{19}
н/о н/о +15.3 +11.5 78 +13 +13 1013.1 1009.6
07 13.10 З 13
{20}
н/о н/о +15.6 +12.3 81 +13 +13 1013.6 1010.2
09 13.10 З 15-21
{21}
н/о н/о +15.9 +11.9 77 +13 +13 1012.2 1008.8
10 13.10 З 13-20
{20}
н/о н/о +14.7 +11.7 82 +12 +12 1011.6 1008.1
11 13.10 З 13-21
{21}
н/о н/о +14.6 +11.6 82 +12 +12 1011.2 1007.7
12 13.10 З 13
{20}
н/о н/о +14.6 +11.7 83 +12 +12 1010.6 1007.1
14 13.10 0 н/о н/о +14.1 +11.3 83 1010.4 1006.9
13 13.10 З 11
{18}
н/о н/о +13.8 +11.5 86 +11 +11 1010.5 1007.0
15 13.10 0 н/о н/о +14.3 +11.4 83 1010.6 1007.1
16 13.10 0 н/о н/о +13.8 +12.2 90 1010.9 1007.4
17 13.10 З 10
{18}
н/о н/о +13.5 +12.6 94 +10 +10 1011.0 1007.5 0.2
18 13.10 ЮЗ 7
{16}
н/о н/о +12.1 +10.3 89 +9 +9 1011.8 1008.3 +12.1 +16.5 0.4
20 13.10 ЮЗ 5
{13}
н/о н/о +10.8 +7.7 81 +8 +8 1012.6 1009.1
19 13.10 З 6
{14}
н/о н/о +11.1 +8.8 86 +8 +8 1012.3 1008.8
21 13.10 ЮЗ 6
{12}
н/о н/о +9.9 +5.7 75 +6 +6 1013.0 1009.5
22 13.10 ЮЗ 7
{12}
н/о н/о +9.8 +4.6 70 +6 +6 1013.2 1009.7
23 13.10 0 н/о н/о +9.4 +4.0 69 1013.3 1009.8
00 14.10 0 н/о н/о +9.3 +3.5 67 1014.0 1010.5
02 14.10 0 н/о н/о +9.6 +4.6 71 1015.0 1011.5
01 14.10 0 н/о н/о +9.1 +3.7 69 1014.4 1010.9
03 14.10 0 н/о н/о +11.1 +4.5 64 1015.1 1011.6
04 14.10 0 н/о н/о +10.6 +4.3 65 1015.4 1011.9
05 14.10 0 н/о н/о +11.4 +3.4 58 1015.9 1012.4
06 14.10 0 н/о н/о +12.7 +5.1 60 1015.9 1012.4 +8.8 +13.4
08 14.10 0 н/о н/о +13.0 +5.6 61 1015.8 1012.3 0.2
07 14.10 0 н/о н/о +13.2 +6.1 62 1016.0 1012.5
09 14.10 0 н/о н/о +12.9 +4.6 57 1015.5 1012.0 0.2
10 14.10 0 н/о н/о +12.3 +5.0 61 1015.4 1011.9
11 14.10 0 н/о н/о +10.5 +4.6 67 1015.4 1011.9
12 14.10 0 н/о н/о +9.9 +4.5 69 1015.4 1011.9
14 14.10 0 н/о н/о +9.9 +3.0 62 1015.4 1011.9
13 14.10 0 н/о н/о +9.5 +3.7 67 1015.2 1011.7
15 14.10 0 н/о н/о +9.9 +3.8 66 1015.6 1012.1
16 14.10 0 н/о н/о +10.0 +4.4 68 1015.5 1012.0
17 14.10 0 н/о н/о +10.0 +4.1 67 1014.8 1011.3
18 14.10 0 н/о н/о +10.5 +5.0 69 1014.3 1010.8 +9.4 +13.5
20 14.10 0 н/о н/о +10.2 +6.7 79 1012.9 1009.4
19 14.10 0 н/о н/о +9.7 +7.0 83 1013.7 1010.2
21 14.10 0 н/о н/о +10.8 +5.7 71 1012.1 1008.6
22 14.10 0 н/о н/о +9.7 +7.6 87 1012.0 1008.5 0.2
23 14.10 0 н/о н/о +10.0 +7.4 84 1011.3 1007.8
00 15.10 0 н/о н/о +9.8 +8.2 90 1011.0 1007.5 0.4
02 15.10 0 н/о н/о +11.5 +9.1 85 1010.5 1007.0
01 15.10 0 н/о н/о +10.9 +8.1 83 1010.7 1007.2 0.2
03 15.10 0 н/о н/о +12.3 +9.5 83 1010.4 1006.9 0.6
04 15.10 0 н/о н/о +13.8 +9.0 73 1010.4 1006.9 0.2
05 15.10 0 н/о н/о +12.9 +10.8 87 1010.4 1006.9 0.8
06 15.10 0 н/о н/о +15.2 +10.6 74 1010.0 1006.6 +8.9 +15.5 1
08 15.10 0 н/о н/о +14.4 +10.2 76 1010.5 1007.0 1
07 15.10 0 н/о н/о +14.7 +10.7 77 1010.1 1006.6
09 15.10 0 н/о н/о +13.6 +7.4 66 1010.7 1007.2 1
10 15.10 0 н/о н/о +14.2 +6.5 60 1011.1 1007.6
11 15.10 0 н/о н/о +13.1 +6.0 62 1011.6 1008.1
12 15.10 ЮЗ 11 н/о н/о +11.1 +5.2 67 +7 +7 1012.3 1008.8
14 15.10 ЮЗ 9-15
{17}
н/о н/о +10.8 +4.9 67 +7 +7 1014.0 1010.5
13 15.10 ЮЗ 10-16
{20}
н/о н/о +10.7 +5.2 69 +7 +7 1013.2 1009.7
15 15.10 ЮЗ 11-21
{21}
н/о н/о +10.3 +3.6 63 +6 +6 1014.9 1011.4
16 15.10 ЮЗ 11-16
{17}
н/о н/о +10.4 +3.2 61 +6 +6 1015.7 1012.2
17 15.10 ЮЗ 9-16
{16}
н/о н/о +9.8 +1.9 58 +6 +6 1016.0 1012.5
18 15.10 ЮЗ 9-15
{16}
н/о н/о +9.6 +2.0 59 +5 +5 1016.6 1013.1 +9.6 +16.0
20 15.10 ЮЗ 8
{15}
н/о н/о +10.0 +3.0 62 +6 +6 1017.1 1013.6
19 15.10 ЮЗ 9
{15}
н/о н/о +9.9 +2.3 59 +6 +6 1017.0 1013.5
21 15.10 ЮЗ 9-15
{16}
н/о н/о +9.7 +1.6 57 +6 +6 1017.2 1013.7
22 15.10 ЮЗ 8
{16}
н/о н/о +10.0 +3.0 62 +6 +6 1017.8 1014.3
23 15.10 ЮЗ 9
{15}
н/о н/о +10.3 +2.6 59 +7 +7 1018.2 1014.7
00 16.10 ЮЗ 10-17
{17}
н/о н/о +10.4 +2.2 57 +6 +6 1018.9 1015.4
02 16.10 ЮЗ 7
{12}
н/о н/о +11.7 +3.9 59 +9 +9 1020.3 1016.8
01 16.10 ЮЗ 8
{16}
н/о н/о +11.3 +3.8 60 +8 +8 1019.9 1016.4
03 16.10 ЮЗ 6
{12}
н/о н/о +11.7 +5.8 67 +9 +9 1020.8 1017.3
04 16.10 ЮЗ 7
{15}
н/о н/о +12.1 +3.8 57 +9 +9 1021.5 1018.0
05 16.10 ЮЗ 6
{16}
н/о н/о +12.6 +6.2 65 +10 +10 1022.2 1018.7
06 16.10 З 6 н/о н/о +13.6 +5.5 58 +12 +12 1022.3 1018.8 +9.5 +14.6
08 16.10 ЮЗ 8
{14}
н/о н/о +13.4 +5.0 57 +11 +11 1023.2 1019.7
07 16.10 ЮЗ 6
{12}
н/о н/о +13.4 +6.7 64 +11 +11 1022.8 1019.3
09 16.10 ЮЗ 7
{12}
н/о н/о +14.0 +6.1 59 +12 +12 1023.4 1019.9
10 16.10 ЮЗ 6
{12}
н/о н/о +13.2 +4.3 55 +11 +11 1023.6 1020.1
11 16.10 ЮЗ 6
{12}
н/о н/о +12.6 +4.8 59 +10 +10 1023.8 1020.3
12 16.10 ЮЗ 6
{10}
н/о н/о +11.6 +4.1 60 +9 +9 1024.1 1020.6
14 16.10 ЮЗ 4
{8}
н/о н/о +9.9 +3.8 66 +8 +8 1025.3 1021.7
13 16.10 ЮЗ 5
{8}
н/о н/о +10.9 +4.4 64 +8 +8 1024.6 1021.0
15 16.10 ЮЗ 3
{6}
н/о н/о +10.9 +5.2 68 +9 +9 1026.0 1022.4
16 16.10 ЮЗ 2
{7}
н/о н/о +10.1 +4.5 68 +9 +9 1026.5 1022.9
17 16.10 ЮЗ 3
{5}
н/о н/о +10.7 +5.2 69 +9 +9 1026.6 1023.0
18 16.10 ЮЗ 3
{6}
н/о н/о +10.3 +4.6 68 +9 +9 1026.9 1023.3 +9.7 +15.4
20 16.10 ЮЗ 3
{4}
н/о н/о +10.2 +4.6 68 +9 +9 1027.2 1023.6
19 16.10 Ю 1
{5}
н/о н/о +10.3 +4.6 68 +10 +10 1027.1 1023.5
21 16.10 ЮЗ 2
{5}
н/о н/о +10.2 +4.3 67 +9 +9 1027.4 1023.8
22 16.10 ЮЗ 4
{6}
н/о н/о +10.6 +4.5 66 +8 +8 1027.4 1023.8
23 16.10 ЮЗ 2
{6}
н/о н/о +10.3 +4.9 69 +9 +9 1027.4 1023.8
00 17.10 З 3
{5}
н/о н/о +10.5 +4.8 68 +9 +9 1027.5 1023.9
02 17.10 СЗ 5
{7}
н/о н/о +11.5 +5.4 66 +9 +9 1028.1 1024.5
01 17.10 З 4
{5}
н/о н/о +10.9 +5.0 67 +9 +9 1027.8 1024.2
03 17.10 СЗ 4
{8}
н/о н/о +12.4 +6.2 66 +11 +11 1027.8 1024.3
04 17.10 З 5
{8}
н/о н/о +12.9 +7.6 70 +11 +11 1028.0 1024.5
05 17.10 З 6
{9}
н/о н/о +13.8 +6.6 62 +12 +12 1028.0 1024.5
06 17.10 СЗ 6 н/о н/о +13.8 +7.1 64 +12 +12 1027.6 1024.1 +10.0 +14.1
08 17.10 З 6
{10}
н/о н/о +13.5 +7.9 69 +11 +11 1027.0 1023.5
07 17.10 СЗ 6
{9}
н/о н/о +13.8 +7.3 65 +12 +12 1027.3 1023.8
09 17.10 СЗ 7
{10}
н/о н/о +14.3 +8.0 66 +12 +12 1026.3 1022.8
10 17.10 СЗ 7
{11}
н/о н/о +13.7 +8.3 70 +11 +11 1026.0 1022.5
11 17.10 СЗ 8
{11}
н/о н/о +13.5 +9.0 74 +11 +11 1026.0 1022.5
12 17.10 СЗ 7
{11}
н/о н/о +13.1 +8.8 75 +10 +10 1026.0 1022.5
14 17.10 З 7
{10}
н/о н/о +12.8 +8.7 76 +10 +10 1026.1 1022.6
13 17.10 СЗ 7
{10}
н/о н/о +12.8 +8.7 76 +10 +10 1025.9 1022.4
15 17.10 СЗ 7
{10}
н/о н/о +13.0 +9.4 79 +10 +10 1026.0 1022.5
16 17.10 СЗ 8
{12}
н/о н/о +13.0 +9.8 81 +10 +10 1025.7 1022.2
17 17.10 СЗ 8
{12}
н/о н/о +13.0 +9.4 79 +10 +10 1025.7 1022.2
18 17.10 СЗ 8
{12}
н/о н/о +13.1 +8.6 74 +10 +10 1025.5 1022.0 +12.6 +14.7
20 17.10 СЗ 8
{12}
н/о н/о +13.0 +9.4 79 +10 +10 1024.8 1021.3
19 17.10 СЗ 9
{14}
н/о н/о +13.3 +9.4 77 +10 +10 1025.4 1021.9
21 17.10 СЗ 7
{11}
н/о н/о +13.0 +10.5 85 +10 +10 1024.4 1020.9
22 17.10 СЗ 7
{11}
н/о н/о +13.0 +10.5 85 +10 +10 1023.9 1020.4
23 17.10 СЗ 10
{12}
н/о н/о +13.2 +10.0 81 +10 +10 1023.6 1020.1
00 18.10 СЗ 10
{12}
н/о н/о +13.1 +9.9 81 +10 +10 1023.4 1019.9

 

Местоположение метеостанции Martin De Vivies Ile Amsterdam (Франц. Южн. Территории): широта -37.80 долгота 77.50 высота над уровнем моря 29 м.

В архиве по умолчанию представлена погода в Martin De Vivies Ile Amsterdam за последнюю неделю. Архивные данные за месяц целиком и за предыдущие месяцы, начиная с января 2011 года, Вы можете получить, выбрав интересующий диапазон дат из раскрывающегося списка и нажав кнопку "Ввод!".


*Определитесь, кто Вы:
робот инопланетянин человек

Внимание! Время в таблицах - всемирное. Для получения местного времени необходимо прибавить поправку, которая в Martin De Vivies Ile Amsterdam равна 5 ч.

Смотрите также архив погоды в соседних городах и на ближайших метеорологических станциях:

Погода в Port-Aux-Francais Iles Kerguelen (Франц. Южн. Территории) (1406 км)
Погода в Heard Island (Австралия) (1727 км)
Погода в Sir Gaetan Duval Airport (Маврикий) (2428 км)
Погода в Rodrigues (Маврикий) (2432 км)
Погода в Sir Seewoosagur Ramgoolam Airport (Маврикий) (2716 км)
Погода в Vacoas Mauritius (Маврикий) (2739 км)

Пояснения к столбцам:

Ветер - указаны скорость ветра в м/с - средняя за 10 мин, порывы в срок и между сроками (в фигурных скобках) и направление, откуда дует ветер: С - северный, СВ - северо-восточный, В - восточный, ЮВ - юго-восточный, Ю - южный, ЮЗ - юго-западный, З - западный, СЗ - северо-западный.
Видимость - горизонтальная дальность видимости в метрах или километрах. При видимости от 1 до 10 км при отсутствии осадков обычно наблюдается дымка, при ухудшении видимости до 1 км и менее - туман. В сухую погоду видимость может ухудшаться дымом, пылью или мглою.
Явления - указаны атмосферные явления, наблюдавшиеся в срок или в последний час перед сроком; фигурными скобками обозначены явления, наблюдавшиеся между сроками (за 1-3 часа до срока); квадратными скобками обозначены град или гололедные отложения с указанием их диаметра в мм.
Облачность - указаны через наклонную черту общая и нижняя облачность в баллах и высота нижней границы облаков в метрах; квадратными скобками обозначены формы облаков: Ci - перистые, Cs - перисто-слоистые, Cc - перисто-кучевые, Ac - высококучевые, As - высокослоистые, Sc - слоисто-кучевые, Ns - слоисто-дождевые, Cu - кучевые, Cb - кучево-дождевые. Подробнее классификацию облаков см. в Атласе облаков (PDF).
T - Температура воздуха - температура, измеренная на высоте 2 м над землей.
Td - Температура точки росы - температура, при понижении до которой содержащийся в воздухе водяной пар достигнет насыщения.
f - Относительная влажность воздуха - влажноcть воздуха, измеренная на высоте 2 м над землей.
Te - Эффективная температура - температура, которую ощущает одетый по сезону человек в тени. Характеристика душности погоды. При расчете учитывается влияние влажности воздуха и скорости ветра на теплоощущения человека.
Tes - Эффективная температура на солнце - температура, которую ощущает человек, с поправкой на солнечный нагрев. Характеристика знойности погоды. Зависит от высоты солнца над горизонтом, облачности и скорости ветра. Ночью, в пасмурную погоду, а также при ветре 12 м/с и более поправка равна нулю.
P - Атмосферное давление - приведенное к уровню моря атмосферное давление.
Po - Атмосферное давление - измеренное на уровне метеостанции атмосферное давление.
Tmin - Минимальная температура - минимум температуры воздуха на высоте 2 м над землей.
Tmax - Максимальная температура - максимум температуры воздуха на высоте 2 м над землей.
R - Количество осадков - Количество выпавших осадков за период времени, мм. При наведении курсора мыши на число - период времени, за который выпало указанное количество осадков.
R24 - Количество осадков - Количество выпавших осадков за 24 часа, мм.
S - Снежный покров - Высота снежного покрова, см. При наведении курсора мыши на число - состояние снежного покрова и степень покрытия местности в баллах.